Regional Weather Roundup
Issued by NWS

Home | Current Version | Previous Version | Graphics & Text | Print | Product List | Glossary On
Versions: 1 2 3 4 5 6 7 8 9 10 11 12 13 14 15 16 17 18 19 20 21 22 23 24 25 26 27 28 29 30 31 32 33 34 35 36 37 38 39 40 41 42 43 44 45 46 47 48 49 50
072
ASUS44 KLIX 181305
RWRLA
LOUISIANA WEATHER ROUNDUP
NATIONAL WEATHER SERVICE NEW ORLEANS LA
800 AM CDT THU SEP 18 2014

NOTE: "FAIR" INDICATES FEW OR NO CLOUDS BELOW 12,000 FEET WITH NO
      SIGNIFICANT WEATHER AND/OR OBSTRUCTIONS TO VISIBILITY.
      SKY/WX - SKY CONDITION AND SIGNIFICANT WEATHER.
      TMP - AIR TEMPERATURE.    DP   - DEWPOINT TEMPERATURE.
      RH  - RELATIVE HUMIDITY.  PRES - PRESSURE.
      HX  - HEAT INDEX.         WCI  - WIND CHILL INDEX.

*  THESE STATIONS ARE NOT NWS OR FAA STATIONS AND ARE NOT UNDER
   NWS QUALITY CONTROL.

LAZ040-048-061>063-065-066-069-181400-
SOUTHEAST LOUISIANA

CITY           SKY/WX    TMP DP  RH WIND       PRES   REMARKS
N.O. AUDUBON     N/A     79  79  98 MISG        N/A
N.O. INTL ARPT PTSUNNY   79  76  90 W3        29.94R
N.O. LAKEFRONT MOSUNNY   81  74  79 NE7       29.94R
N.O. DOWNTOWN* CLOUDY    81  72  74 CALM      29.94R
SLIDELL        SUNNY     74  71  91 CALM      29.93R
BATON ROUGE    CLOUDY    74  72  93 NE3       29.93R
BOOTHVILLE     PTSUNNY   81  77  88 SE3       29.94R
BELLE CHASSE   PTSUNNY   77  73  87 N3        29.93R
BOGALUSA*      FAIR      74  71  89 CALM      29.95S
GALLIANO*      NOT AVBL
NEW ROADS*     FAIR      73  72  98 CALM      29.93R
GONZALES*      FAIR      75  75 100 CALM      29.93R
HAMMOND*       MOSUNNY   73  72  94 CALM      29.95S
HOUMA*         PTSUNNY  N/A N/A N/A CALM      29.93R FOG
PORT FOURCHON* PTSUNNY   79  72  78 CALM      29.96S

$$

LAZ041-044-053-054-181400-
SOUTHWEST LOUISIANA

CITY           SKY/WX    TMP DP  RH WIND       PRES   REMARKS
LAKE CHARLES   CLOUDY    75  74  96 NE3       29.92R
LAFAYETTE      CLOUDY    76  75  97 CALM      29.94R
PATTERSON      CLOUDY    77  75  94 NE3       29.95S
SALT POINT       N/A     79  77  94 CALM      29.92S
NEW IBERIA     CLOUDY    76  74  93 CALM      29.94R
CHENAULT AIRPK CLOUDY    75  75 100 CALM      29.92R FOG

$$

LAZ027-028-181400-
CENTRAL LOUISIANA

CITY           SKY/WX    TMP DP  RH WIND       PRES   REMARKS
FORT POLK      CLOUDY    73  72  96 CALM      29.94R
ALEXANDRIA INT CLOUDY    73  72  96 CALM      29.92R FOG
ALEXANDRIA     CLOUDY    74  71  91 CALM      29.93R

$$

LAZ001-002-181400-
NORTHWEST LOUISIANA

CITY           SKY/WX    TMP DP  RH WIND       PRES   REMARKS
SHREVEPORT     CLOUDY    74  71  91 S5        29.91R
BARKSDALE AFB  CLOUDY    74  72  94 S7        29.92R
DTN SHREVEPORT CLOUDY    75  72  90 SW7       29.91R

$$

LAZ014-016-181400-
NORTHEAST LOUISIANA

CITY           SKY/WX    TMP DP  RH WIND       PRES   REMARKS
MONROE         CLOUDY    74  72  93 CALM      29.94R
TALLULAH       PTSUNNY   76  72  87 CALM      29.94R

$$




USA.gov is the U.S. government's official web portal to all federal, state and local government web resources and services.